Branson, MO

11:20 PM CST on December 14, 2017 (GMT -0600)
Branson

Weather History for KBBG - December, 2012

Change the Weather History Date:

Saturday, December 22, 2012

  Actual Average (KHRO) Record (KHRO)
Temperature  
Mean Temperature 45 °F -  
Max Temperature 62 °F 44 °F 72 °F (1933)
Min Temperature 28 °F 25 °F -9 °F (1989)
Degree Days  
Heating Degree Days 20    
Moisture  
Dew Point 16 °F    
Average Humidity 37    
Maximum Humidity 80    
Minimum Humidity 10    
Precipitation  
Precipitation 0.00 in - - ()
Sea Level Pressure  
Sea Level Pressure 30.14 in    
Wind  
Wind Speed 6 mph (South)    
Max Wind Speed 14 mph    
Max Gust Speed 21 mph    
Visibility 10 miles    
Events      
Averages and records for this station are not official NWS values.
T = Trace of Precipitation, MM = Missing Value Source: NWS Daily Summary

Daily Weather History Graph

Daily Weather History Graph

Search for Another Location

Airport or City:

Trip Planner

Search our weather history database for the weather conditions in past years. The results will help you decide how hot, cold, wet, or windy it might be!

Date:

Astronomy

Dec. 22, 2012 Rise Set
Actual Time 7:21 AM CST 5:01 PM CST
Civil Twilight 6:52 AM CST 5:30 PM CST
Nautical Twilight 6:20 AM CST 6:02 PM CST
Astronomical Twilight 5:49 AM CST 6:34 PM CST
Moon 1:15 PM CST (12/22) 2:12 AM CST (12/22)
Length of Visible Light 10h 37m
Length of Day
9h 39m
Waxing Gibbous, 74% of the Moon is Illuminated
Dec 22
Waxing Gibbous
Dec 28
Full
Jan 4
Last Quarter
Jan 11
New
Jan 18
First Quarter

Hourly Weather History & Observations

Time (CST) Temp. Windchill Dew Point Humidity Pressure Visibility Wind Dir Wind Speed Gust Speed Precip Events Conditions
12:15 AM 35.6 °F 29.9 °F 17.6 °F 48% 30.27 in 10.0 mi SSE 6.9 mph - N/A   Clear
12:35 AM 35.6 °F 30.7 °F 15.8 °F 44% 30.26 in 10.0 mi SSE 5.8 mph - N/A   Clear
12:55 AM 35.6 °F 29.9 °F 15.8 °F 44% 30.26 in 10.0 mi SE 6.9 mph - N/A   Clear
1:15 AM 35.6 °F 31.7 °F 15.8 °F 44% 30.25 in 10.0 mi SSE 4.6 mph - N/A   Clear
1:35 AM 33.8 °F 28.6 °F 15.8 °F 48% 30.25 in 10.0 mi SE 5.8 mph - N/A   Clear
1:55 AM 33.8 °F 28.6 °F 15.8 °F 48% 30.25 in 10.0 mi SE 5.8 mph - N/A   Clear
2:15 AM 35.6 °F 29.9 °F 15.8 °F 44% 30.25 in 10.0 mi SE 6.9 mph - N/A   Clear
2:35 AM 35.6 °F 31.7 °F 15.8 °F 44% 30.25 in 10.0 mi SSE 4.6 mph - N/A   Clear
2:55 AM 35.6 °F 31.7 °F 15.8 °F 44% 30.24 in 10.0 mi SSE 4.6 mph - N/A   Clear
3:15 AM 35.6 °F 31.7 °F 15.8 °F 44% 30.24 in 10.0 mi SE 4.6 mph - N/A   Clear
3:35 AM 32.0 °F 28.7 °F 17.6 °F 55% 30.24 in 10.0 mi SE 3.5 mph - N/A   Clear
3:55 AM 32.0 °F 28.7 °F 15.8 °F 51% 30.23 in 10.0 mi SSE 3.5 mph - N/A   Clear
4:15 AM 32.0 °F 27.5 °F 15.8 °F 51% 30.23 in 10.0 mi SSE 4.6 mph - N/A   Clear
4:35 AM 32.0 °F - 17.6 °F 55% 30.22 in 10.0 mi Calm Calm - N/A   Clear
4:55 AM 32.0 °F - 17.6 °F 55% 30.22 in 10.0 mi Calm Calm - N/A   Clear
5:15 AM 32.0 °F - 17.6 °F 55% 30.22 in 10.0 mi Calm Calm - N/A   Clear
5:35 AM 28.4 °F 23.3 °F 17.6 °F 64% 30.22 in 10.0 mi ESE 4.6 mph - N/A   Clear
6:50 AM 28.4 °F 23.3 °F 21.2 °F 74% 30.22 in 10.0 mi SE 4.6 mph - N/A   Clear
7:50 AM 28.4 °F 23.3 °F 23.0 °F 80% 30.22 in 10.0 mi SE 4.6 mph - N/A   Clear
8:50 AM 35.6 °F 31.7 °F 23.0 °F 60% 30.21 in 10.0 mi SE 4.6 mph - N/A   Clear
9:50 AM 41.0 °F 38.0 °F 23.0 °F 49% 30.21 in 10.0 mi SE 4.6 mph - N/A   Clear
10:45 AM 53.6 °F - 21.2 °F 28% 30.20 in 10.0 mi SSE 4.6 mph - N/A   Clear
11:45 AM 59.0 °F - 15.8 °F 19% 30.16 in 10.0 mi SW 8.1 mph - N/A   Clear
12:57 PM 60.8 °F - 10.4 °F 14% 30.11 in 10.0 mi SW 11.5 mph 19.6 mph N/A   Clear
1:46 PM 62.6 °F - 5.0 °F 10% 30.08 in 10.0 mi SW 13.8 mph 20.7 mph N/A   Partly Cloudy
2:46 PM 62.6 °F - 5.0 °F 10% 30.06 in 10.0 mi SW 11.5 mph 19.6 mph N/A   Scattered Clouds
3:45 PM 62.6 °F - 5.0 °F 10% 30.04 in 10.0 mi SW 11.5 mph 18.4 mph N/A   Mostly Cloudy
4:45 PM 57.2 °F - 6.8 °F 13% 30.04 in 10.0 mi SSW 5.8 mph - N/A   Mostly Cloudy
5:48 PM 55.4 °F - 8.6 °F 15% 30.04 in 10.0 mi SSW 9.2 mph - N/A   Scattered Clouds
6:54 PM 53.6 °F - 14.0 °F 21% 30.04 in 10.0 mi SSW 6.9 mph - N/A   Scattered Clouds
7:55 PM 51.8 °F - 14.0 °F 22% 30.03 in 10.0 mi South 5.8 mph - N/A   Scattered Clouds
8:15 PM 50.0 °F - 15.8 °F 26% 30.03 in 10.0 mi South 3.5 mph - N/A   Overcast
8:35 PM 50.0 °F - 15.8 °F 26% 30.03 in 10.0 mi South 4.6 mph - N/A   Overcast
8:46 PM 50.0 °F - 15.8 °F 26% 30.03 in 10.0 mi South 8.1 mph - N/A   Scattered Clouds
8:55 PM 50.0 °F - 15.8 °F 26% 30.03 in 10.0 mi SSW 4.6 mph - N/A   Overcast
9:15 PM 50.0 °F - 17.6 °F 28% 30.02 in 10.0 mi SSW 4.6 mph - N/A   Overcast
9:35 PM 50.0 °F - 17.6 °F 28% 30.02 in 10.0 mi SSW 5.8 mph - N/A   Mostly Cloudy
9:55 PM 50.0 °F - 17.6 °F 28% 30.02 in 10.0 mi SSW 8.1 mph - N/A   Scattered Clouds
10:15 PM 50.0 °F - 19.4 °F 30% 30.01 in 10.0 mi SSW 6.9 mph - N/A   Scattered Clouds
10:35 PM 50.0 °F - 19.4 °F 30% 30.01 in 10.0 mi SSW 5.8 mph - N/A   Partly Cloudy
10:55 PM 50.0 °F - 19.4 °F 30% 30.01 in 10.0 mi SSW 5.8 mph - N/A   Clear
11:15 PM 50.0 °F - 21.2 °F 32% 30.01 in 10.0 mi SSW 5.8 mph - N/A   Partly Cloudy
11:35 PM 50.0 °F - 23.0 °F 35% 30.00 in 10.0 mi SSW 4.6 mph - N/A   Partly Cloudy
11:55 PM 50.0 °F - 24.8 °F 37% 30.00 in 10.0 mi SSW 6.9 mph - N/A   Clear